Regional Weather Roundup
Issued by NWS

Home | Current Version | Previous Version | Graphics & Text | Print | Product List | Glossary On
Versions: 1 2 3 4 5 6 7 8 9 10 11 12 13 14 15 16 17 18 19 20 21 22 23 24 25 26 27 28 29 30 31 32 33 34 35 36 37 38 39 40 41 42 43 44 45 46 47 48 49 50
000
ASUS43 KBIS 201410
RWRND

NORTH DAKOTA REGIONAL WEATHER ROUNDUP
NATIONAL WEATHER SERVICE BISMARCK ND
800 AM CST MON NOV 20 2017

NOTE: "FAIR" INDICATES FEW OR NO CLOUDS BELOW 12,000 FEET WITH NO
SIGNIFICANT WEATHER AND/OR OBSTRUCTIONS TO VISIBILITY.


NDZ001>003-009>011-017-201500-
NORTHWEST NORTH DAKOTA

CITY           SKY/WX    TMP DP  RH WIND       PRES   REMARKS
WILLISTON      CLOUDY    34  21  59 SW7       29.39R
MINOT          CLOUDY    39  22  50 SW13      29.34F
MINOT AFB      CLOUDY    36  22  58 SW10      29.32F
$$

NDZ018>021-031>035-040>046-201500-
SOUTHWEST NORTH DAKOTA

CITY           SKY/WX    TMP DP  RH WIND       PRES   REMARKS
BISMARCK       CLOUDY    29  21  72 S6        29.44F
DICKINSON      CLOUDY    38  18  44 SW15      29.43S
GARRISON         N/A     35  27  72 W12       29.38F
HETTINGER ARPT CLOUDY    37  15  40 W12       29.50S
$$

NDZ004>008-012>016-024-026-027-054-201500-
NORTHEAST NORTH DAKOTA

CITY           SKY/WX    TMP DP  RH WIND       PRES   REMARKS
GRAND FORKS    CLOUDY    31  26  82 S15       29.39F
GRND FRKS AFB  CLOUDY    31  26  79 S9        29.37F
DEVILS LAKE    CLOUDY    33  25  72 SW9       29.34F
$$

NDZ022-023-025-028>030-036>039-047>053-201500-
SOUTHEAST NORTH DAKOTA

CITY           SKY/WX    TMP DP  RH WIND       PRES   REMARKS
FARGO          CLOUDY    31  24  75 S15       29.44F
JAMESTOWN      CLOUDY    32  23  69 SW6       29.40F
$$





USA.gov is the U.S. government's official web portal to all federal, state and local government web resources and services.